Time,TemperatureF,DewpointF,PressureIn,WindDirection,WindDirectionDegrees,WindSpeedMPH,WindSpeedGustMPH,Humidity,HourlyPrecipIn,Conditions,Clouds,dailyrainin,SoftwareType,DateUTC
2013-06-25 00:01:00,71.1,66.4,30.01,NW,323,0.0,0.0,85,0.00,,---,0.00,VWS V14.01,2013-06-25 04:01:00,
2013-06-25 00:02:00,71.1,66.4,30.00,NW,323,0.0,0.0,85,0.00,,---,0.00,VWS V14.01,2013-06-25 04:02:00,
2013-06-25 00:07:00,70.7,66.3,30.00,NW,319,0.0,0.0,86,0.00,,---,0.00,VWS V14.01,2013-06-25 04:07:00,
2013-06-25 00:12:00,70.3,66.2,30.00,NW,319,0.0,0.0,87,0.00,,---,0.00,VWS V14.01,2013-06-25 04:12:00,
2013-06-25 00:17:00,69.9,66.2,30.00,WNW,283,1.0,1.0,88,0.00,,---,0.00,VWS V14.01,2013-06-25 04:17:00,
2013-06-25 00:22:00,69.6,66.2,30.00,WNW,283,0.0,1.0,89,0.00,,---,0.00,VWS V14.01,2013-06-25 04:22:00,
2013-06-25 00:27:00,69.6,66.5,30.00,WSW,245,0.0,1.0,90,0.00,,---,0.00,VWS V14.01,2013-06-25 04:27:00,
2013-06-25 00:32:00,69.6,66.2,30.00,WNW,297,0.0,1.0,89,0.00,,---,0.00,VWS V14.01,2013-06-25 04:32:00,
2013-06-25 00:37:00,69.4,66.0,30.00,WNW,291,1.0,1.0,89,0.00,,---,0.00,VWS V14.01,2013-06-25 04:37:00,
2013-06-25 00:42:00,69.3,65.9,30.00,WNW,297,1.0,1.0,89,0.00,,---,0.00,VWS V14.01,2013-06-25 04:42:00,
2013-06-25 00:47:00,69.2,65.8,30.00,WNW,298,0.0,1.0,89,0.00,,---,0.00,VWS V14.01,2013-06-25 04:47:00,
2013-06-25 00:52:00,69.3,65.9,30.00,WNW,298,0.0,1.0,89,0.00,,---,0.00,VWS V14.01,2013-06-25 04:52:00,
2013-06-25 00:57:00,69.2,65.8,30.00,WNW,298,0.0,1.0,89,0.00,,---,0.00,VWS V14.01,2013-06-25 04:57:00,
2013-06-25 01:02:00,69.0,65.9,30.00,WNW,298,0.0,0.0,90,0.00,,---,0.00,VWS V14.01,2013-06-25 05:02:00,
2013-06-25 01:07:00,68.7,66.0,30.00,WNW,298,0.0,0.0,91,0.00,,---,0.00,VWS V14.01,2013-06-25 05:07:00,
2013-06-25 01:12:00,68.6,65.9,29.99,WNW,298,0.0,0.0,91,0.00,,---,0.00,VWS V14.01,2013-06-25 05:12:00,
2013-06-25 01:17:00,68.5,66.1,29.99,NW,317,0.0,0.0,92,0.00,,---,0.00,VWS V14.01,2013-06-25 05:17:00,
2013-06-25 01:22:00,68.5,66.1,29.99,NW,317,0.0,0.0,92,0.00,,---,0.00,VWS V14.01,2013-06-25 05:22:00,
2013-06-25 01:27:00,68.5,66.1,29.99,NW,317,0.0,0.0,92,0.00,,---,0.00,VWS V14.01,2013-06-25 05:27:00,
2013-06-25 01:32:00,68.4,65.7,29.99,NNE,13,0.0,1.0,91,0.00,,---,0.00,VWS V14.01,2013-06-25 05:32:00,
2013-06-25 01:37:00,68.5,65.8,29.99,NNE,13,0.0,1.0,91,0.00,,---,0.00,VWS V14.01,2013-06-25 05:37:00,
2013-06-25 01:42:00,68.5,65.8,29.99,NNW,344,0.0,1.0,91,0.00,,---,0.00,VWS V14.01,2013-06-25 05:42:00,
2013-06-25 01:47:00,68.4,65.7,29.99,NNW,329,0.0,1.0,91,0.00,,---,0.00,VWS V14.01,2013-06-25 05:47:00,
2013-06-25 01:52:00,68.3,65.6,29.99,NNW,329,0.0,1.0,91,0.00,,---,0.00,VWS V14.01,2013-06-25 05:52:00,
2013-06-25 01:57:00,68.1,65.4,29.99,NNW,329,0.0,1.0,91,0.00,,---,0.00,VWS V14.01,2013-06-25 05:57:00,
2013-06-25 02:02:00,68.1,65.4,29.99,NNW,329,0.0,0.0,91,0.00,,---,0.00,VWS V14.01,2013-06-25 06:02:00,
2013-06-25 02:07:00,68.0,65.3,29.99,NNW,329,0.0,0.0,91,0.00,,---,0.00,VWS V14.01,2013-06-25 06:07:00,
2013-06-25 02:12:00,67.9,65.2,29.99,NW,323,0.0,0.0,91,0.00,,---,0.00,VWS V14.01,2013-06-25 06:12:00,
2013-06-25 02:17:00,67.9,65.2,29.99,NW,323,0.0,0.0,91,0.00,,---,0.00,VWS V14.01,2013-06-25 06:17:00,
2013-06-25 02:22:00,67.7,65.0,29.99,NW,323,0.0,0.0,91,0.00,,---,0.00,VWS V14.01,2013-06-25 06:22:00,
2013-06-25 02:27:00,67.6,65.2,29.99,NW,323,0.0,0.0,92,0.00,,---,0.00,VWS V14.01,2013-06-25 06:27:00,
2013-06-25 02:32:00,67.5,65.1,29.99,NW,323,0.0,0.0,92,0.00,,---,0.00,VWS V14.01,2013-06-25 06:32:00,
2013-06-25 02:37:00,67.5,65.1,29.99,NW,323,0.0,0.0,92,0.00,,---,0.00,VWS V14.01,2013-06-25 06:37:00,
2013-06-25 02:42:00,67.3,64.9,29.99,NW,323,0.0,0.0,92,0.00,,---,0.00,VWS V14.01,2013-06-25 06:42:00,
2013-06-25 02:47:00,67.1,65.0,29.99,NW,323,0.0,0.0,93,0.00,,---,0.00,VWS V14.01,2013-06-25 06:47:00,
2013-06-25 02:52:00,66.9,64.8,29.99,NW,324,0.0,0.0,93,0.00,,---,0.00,VWS V14.01,2013-06-25 06:52:00,
2013-06-25 02:57:00,67.1,65.0,29.98,NE,45,0.0,2.0,93,0.00,,---,0.00,VWS V14.01,2013-06-25 06:57:00,
2013-06-25 03:02:00,67.1,65.0,29.98,NE,45,0.0,0.0,93,0.00,,---,0.00,VWS V14.01,2013-06-25 07:02:00,
2013-06-25 03:07:00,67.1,65.0,29.98,East,95,0.0,1.0,93,0.00,,---,0.00,VWS V14.01,2013-06-25 07:07:00,
2013-06-25 03:12:00,67.0,64.9,29.98,ENE,67,0.0,1.0,93,0.00,,---,0.00,VWS V14.01,2013-06-25 07:12:00,
2013-06-25 03:17:00,66.9,64.8,29.98,NE,51,0.0,1.0,93,0.00,,---,0.00,VWS V14.01,2013-06-25 07:17:00,
2013-06-25 03:22:00,66.8,64.7,29.97,NNE,27,0.0,2.0,93,0.00,,---,0.00,VWS V14.01,2013-06-25 07:22:00,
2013-06-25 03:27:00,66.7,64.6,29.97,NE,51,0.0,3.0,93,0.00,,---,0.00,VWS V14.01,2013-06-25 07:27:00,
2013-06-25 03:32:00,66.6,64.5,29.97,NE,52,0.0,1.0,93,0.00,,---,0.00,VWS V14.01,2013-06-25 07:32:00,
2013-06-25 03:37:00,66.5,64.7,29.97,ENE,58,0.0,2.0,94,0.00,,---,0.00,VWS V14.01,2013-06-25 07:37:00,
2013-06-25 03:42:00,66.4,64.6,29.97,ENE,63,0.0,2.0,94,0.00,,---,0.00,VWS V14.01,2013-06-25 07:42:00,
2013-06-25 03:47:00,66.3,64.5,29.97,ESE,105,0.0,2.0,94,0.00,,---,0.00,VWS V14.01,2013-06-25 07:47:00,
2013-06-25 03:52:00,66.2,64.4,29.97,ESE,103,0.0,2.0,94,0.00,,---,0.00,VWS V14.01,2013-06-25 07:52:00,
2013-06-25 03:57:00,66.1,64.3,29.97,ESE,103,0.0,2.0,94,0.00,,---,0.00,VWS V14.01,2013-06-25 07:57:00,
2013-06-25 04:02:00,66.0,64.2,29.97,ESE,102,0.0,0.0,94,0.00,,---,0.00,VWS V14.01,2013-06-25 08:02:00,
2013-06-25 04:07:00,65.9,64.1,29.97,NE,46,1.0,3.0,94,0.00,,---,0.00,VWS V14.01,2013-06-25 08:07:00,
2013-06-25 04:12:00,65.9,64.1,29.97,SE,132,0.0,3.0,94,0.00,,---,0.00,VWS V14.01,2013-06-25 08:12:00,
2013-06-25 04:17:00,65.9,64.1,29.97,ENE,74,0.0,3.0,94,0.00,,---,0.00,VWS V14.01,2013-06-25 08:17:00,
2013-06-25 04:22:00,65.8,64.3,29.97,ESE,118,0.0,3.0,95,0.00,,---,0.00,VWS V14.01,2013-06-25 08:22:00,
2013-06-25 04:27:00,65.7,64.2,29.97,ESE,116,0.0,3.0,95,0.00,,---,0.00,VWS V14.01,2013-06-25 08:27:00,
2013-06-25 04:32:00,65.7,64.2,29.97,ENE,60,0.0,2.0,95,0.00,,---,0.00,VWS V14.01,2013-06-25 08:32:00,
2013-06-25 04:37:00,65.8,64.3,29.97,NE,43,0.0,2.0,95,0.00,,---,0.00,VWS V14.01,2013-06-25 08:37:00,
2013-06-25 04:42:00,65.8,64.3,29.97,NW,316,0.0,2.0,95,0.00,,---,0.00,VWS V14.01,2013-06-25 08:42:00,
2013-06-25 04:47:00,65.8,64.3,29.97,NW,315,0.0,2.0,95,0.00,,---,0.00,VWS V14.01,2013-06-25 08:47:00,
2013-06-25 04:52:00,65.7,64.2,29.97,WNW,293,1.0,2.0,95,0.00,,---,0.00,VWS V14.01,2013-06-25 08:52:00,
2013-06-25 04:57:00,65.6,64.1,29.97,West,264,0.0,2.0,95,0.00,,---,0.00,VWS V14.01,2013-06-25 08:57:00,
2013-06-25 05:02:00,65.6,64.1,29.97,West,268,0.0,0.0,95,0.00,,---,0.00,VWS V14.01,2013-06-25 09:02:00,
2013-06-25 05:07:00,65.5,64.0,29.97,West,267,0.0,0.0,95,0.00,,---,0.00,VWS V14.01,2013-06-25 09:07:00,
2013-06-25 05:12:00,65.4,63.9,29.97,West,268,0.0,0.0,95,0.00,,---,0.00,VWS V14.01,2013-06-25 09:12:00,
2013-06-25 05:17:00,65.4,64.2,29.97,NNE,26,0.0,1.0,96,0.00,,---,0.00,VWS V14.01,2013-06-25 09:17:00,
2013-06-25 05:22:00,65.3,64.1,29.97,NNE,13,0.0,1.0,96,0.00,,---,0.00,VWS V14.01,2013-06-25 09:22:00,
2013-06-25 05:27:00,65.2,63.7,29.97,NNE,13,0.0,1.0,95,0.00,,---,0.00,VWS V14.01,2013-06-25 09:27:00,
2013-06-25 05:32:00,65.1,63.6,29.97,NNE,13,0.0,0.0,95,0.00,,---,0.00,VWS V14.01,2013-06-25 09:32:00,
2013-06-25 05:37:00,65.1,63.9,29.97,WNW,296,0.0,1.0,96,0.00,,---,0.00,VWS V14.01,2013-06-25 09:37:00,
2013-06-25 05:42:00,65.0,63.8,29.97,WNW,297,0.0,1.0,96,0.00,,---,0.00,VWS V14.01,2013-06-25 09:42:00,
2013-06-25 05:47:00,65.0,63.8,29.97,WNW,297,0.0,1.0,96,0.00,,---,0.00,VWS V14.01,2013-06-25 09:47:00,
2013-06-25 05:52:00,65.0,63.8,29.97,NNE,17,0.0,1.0,96,0.00,,---,0.00,VWS V14.01,2013-06-25 09:52:00,
2013-06-25 05:57:00,65.0,63.8,29.97,NNE,17,0.0,1.0,96,0.00,,---,0.00,VWS V14.01,2013-06-25 09:57:00,
2013-06-25 06:02:00,65.0,63.8,29.97,NNE,17,0.0,0.0,96,0.00,,---,0.00,VWS V14.01,2013-06-25 10:02:00,
2013-06-25 06:07:00,65.1,63.9,29.97,NNE,17,0.0,0.0,96,0.00,,---,0.00,VWS V14.01,2013-06-25 10:07:00,
2013-06-25 06:12:00,65.1,63.9,29.97,NNE,18,0.0,1.0,96,0.00,,---,0.00,VWS V14.01,2013-06-25 10:12:00,
2013-06-25 06:17:00,65.2,64.0,29.98,NNE,17,0.0,1.0,96,0.00,,---,0.00,VWS V14.01,2013-06-25 10:17:00,
2013-06-25 06:22:00,65.3,64.1,29.98,NNE,17,0.0,1.0,96,0.00,,---,0.00,VWS V14.01,2013-06-25 10:22:00,
2013-06-25 06:27:00,65.4,63.9,29.98,NNE,17,0.0,1.0,95,0.00,,---,0.00,VWS V14.01,2013-06-25 10:27:00,
2013-06-25 06:32:00,65.6,64.1,29.98,NNE,17,0.0,0.0,95,0.00,,---,0.00,VWS V14.01,2013-06-25 10:32:00,
2013-06-25 06:37:00,65.7,64.2,29.98,NNE,18,0.0,0.0,95,0.00,,---,0.00,VWS V14.01,2013-06-25 10:37:00,
2013-06-25 06:42:00,65.8,64.3,29.98,NNE,18,0.0,0.0,95,0.00,,---,0.00,VWS V14.01,2013-06-25 10:42:00,
2013-06-25 06:47:00,65.9,64.1,29.98,NNE,18,0.0,0.0,94,0.00,,---,0.00,VWS V14.01,2013-06-25 10:47:00,
2013-06-25 06:52:00,66.1,64.3,29.98,NNE,18,0.0,0.0,94,0.00,,---,0.00,VWS V14.01,2013-06-25 10:52:00,
2013-06-25 06:57:00,66.3,64.5,29.98,NNE,19,0.0,0.0,94,0.00,,---,0.00,VWS V14.01,2013-06-25 10:57:00,
2013-06-25 07:02:00,66.5,64.7,29.97,NNE,19,0.0,0.0,94,0.00,,---,0.00,VWS V14.01,2013-06-25 11:02:00,
2013-06-25 07:07:00,66.9,64.8,29.97,ENE,67,0.0,0.0,93,0.00,,---,0.00,VWS V14.01,2013-06-25 11:07:00,
2013-06-25 07:12:00,67.5,65.1,29.97,ENE,67,0.0,1.0,92,0.00,,---,0.00,VWS V14.01,2013-06-25 11:12:00,
2013-06-25 07:17:00,68.3,65.6,29.98,ENE,67,0.0,1.0,91,0.00,,---,0.00,VWS V14.01,2013-06-25 11:17:00,
2013-06-25 07:22:00,68.9,65.8,29.98,ENE,67,0.0,1.0,90,0.00,,---,0.00,VWS V14.01,2013-06-25 11:22:00,
2013-06-25 07:27:00,69.4,66.0,29.98,ENE,67,0.0,1.0,89,0.00,,---,0.00,VWS V14.01,2013-06-25 11:27:00,
2013-06-25 07:32:00,69.7,66.0,29.98,NW,314,0.0,0.0,88,0.00,,---,0.00,VWS V14.01,2013-06-25 11:32:00,
2013-06-25 07:37:00,69.9,65.9,29.98,NNE,13,0.0,0.0,87,0.00,,---,0.00,VWS V14.01,2013-06-25 11:37:00,
2013-06-25 07:42:00,70.5,66.4,29.98,NNE,12,0.0,0.0,87,0.00,,---,0.00,VWS V14.01,2013-06-25 11:42:00,
2013-06-25 07:47:00,70.8,66.4,29.98,North,11,0.0,1.0,86,0.00,,---,0.00,VWS V14.01,2013-06-25 11:47:00,
2013-06-25 07:52:00,71.4,67.0,29.98,NNW,329,0.0,1.0,86,0.00,,---,0.00,VWS V14.01,2013-06-25 11:52:00,
2013-06-25 07:57:00,71.8,67.1,29.98,NE,41,0.0,1.0,85,0.00,,---,0.00,VWS V14.01,2013-06-25 11:57:00,
2013-06-25 08:02:00,72.3,66.8,29.98,East,97,0.0,1.0,83,0.00,,---,0.00,VWS V14.01,2013-06-25 12:02:00,
2013-06-25 08:07:00,72.4,67.3,29.98,East,83,0.0,1.0,84,0.00,,---,0.00,VWS V14.01,2013-06-25 12:07:00,
2013-06-25 08:12:00,72.7,67.6,29.98,ESE,115,1.0,1.0,84,0.00,,---,0.00,VWS V14.01,2013-06-25 12:12:00,
2013-06-25 08:17:00,73.0,67.5,29.98,ESE,105,1.0,1.0,83,0.00,,---,0.00,VWS V14.01,2013-06-25 12:17:00,
2013-06-25 08:21:00,73.3,67.8,29.98,East,100,0.0,2.0,83,0.00,,---,0.00,VWS V14.01,2013-06-25 12:21:00,
2013-06-25 08:26:00,73.8,68.0,29.99,South,171,0.0,2.0,82,0.00,,---,0.00,VWS V14.01,2013-06-25 12:26:00,
2013-06-25 08:31:00,74.0,67.8,29.99,SE,127,1.0,1.0,81,0.00,,---,0.00,VWS V14.01,2013-06-25 12:31:00,
2013-06-25 08:37:00,74.4,68.2,29.99,NE,49,0.0,1.0,81,0.00,,---,0.00,VWS V14.01,2013-06-25 12:37:00,
2013-06-25 08:42:00,75.0,68.4,29.99,ESE,110,1.0,2.0,80,0.00,,---,0.00,VWS V14.01,2013-06-25 12:42:00,
2013-06-25 08:47:00,75.2,68.6,29.99,SSE,162,0.0,2.0,80,0.00,,---,0.00,VWS V14.01,2013-06-25 12:47:00,
2013-06-25 08:52:00,75.5,68.5,29.99,SE,124,1.0,3.0,79,0.00,,---,0.00,VWS V14.01,2013-06-25 12:52:00,
2013-06-25 08:57:00,75.7,69.1,29.98,ENE,61,0.0,3.0,80,0.00,,---,0.00,VWS V14.01,2013-06-25 12:57:00,
2013-06-25 09:02:00,76.0,68.7,29.98,NE,44,1.0,2.0,78,0.00,,---,0.00,VWS V14.01,2013-06-25 13:02:00,
2013-06-25 09:07:00,76.1,69.5,29.98,NE,47,2.0,3.0,80,0.00,,---,0.00,VWS V14.01,2013-06-25 13:07:00,
2013-06-25 09:12:00,76.1,69.1,29.99,NE,41,0.0,3.0,79,0.00,,---,0.00,VWS V14.01,2013-06-25 13:12:00,
2013-06-25 09:17:00,76.2,69.2,29.98,ESE,113,0.0,3.0,79,0.00,,---,0.00,VWS V14.01,2013-06-25 13:17:00,
2013-06-25 09:22:00,76.7,69.3,29.98,East,91,0.0,3.0,78,0.00,,---,0.00,VWS V14.01,2013-06-25 13:22:00,
2013-06-25 09:27:00,77.5,70.1,29.98,SE,145,0.0,3.0,78,0.00,,---,0.00,VWS V14.01,2013-06-25 13:27:00,
2013-06-25 09:32:00,78.0,70.2,29.98,East,89,2.0,2.0,77,0.00,,---,0.00,VWS V14.01,2013-06-25 13:32:00,
2013-06-25 09:37:00,77.9,70.1,29.98,ESE,113,0.0,3.0,77,0.00,,---,0.00,VWS V14.01,2013-06-25 13:37:00,
2013-06-25 09:42:00,79.2,70.2,29.97,WNW,285,0.0,3.0,74,0.00,,---,0.00,VWS V14.01,2013-06-25 13:42:00,
2013-06-25 09:47:00,80.2,70.4,29.97,NE,50,0.0,3.0,72,0.00,,---,0.00,VWS V14.01,2013-06-25 13:47:00,
2013-06-25 09:52:00,79.9,70.5,29.97,NNW,335,1.0,3.0,73,0.00,,---,0.00,VWS V14.01,2013-06-25 13:52:00,
2013-06-25 09:57:00,80.1,70.3,29.97,SW,232,1.0,4.0,72,0.00,,---,0.00,VWS V14.01,2013-06-25 13:57:00,
2013-06-25 10:02:00,80.7,70.4,29.97,WNW,301,1.0,3.0,71,0.00,,---,0.00,VWS V14.01,2013-06-25 14:02:00,
2013-06-25 10:07:00,81.7,70.6,29.97,East,86,2.0,4.0,69,0.00,,---,0.00,VWS V14.01,2013-06-25 14:07:00,
2013-06-25 10:12:00,81.4,70.3,29.97,East,101,2.0,4.0,69,0.00,,---,0.00,VWS V14.01,2013-06-25 14:12:00,
2013-06-25 10:17:00,81.2,70.9,29.97,SSE,164,0.0,4.0,71,0.00,,---,0.00,VWS V14.01,2013-06-25 14:17:00,
2013-06-25 10:22:00,82.9,71.3,29.97,East,101,1.0,4.0,68,0.00,,---,0.00,VWS V14.01,2013-06-25 14:22:00,
2013-06-25 10:27:00,83.2,71.6,29.97,SSW,207,1.0,5.0,68,0.00,,---,0.00,VWS V14.01,2013-06-25 14:27:00,
2013-06-25 10:32:00,83.7,71.1,29.97,SSW,211,0.0,2.0,66,0.00,,---,0.00,VWS V14.01,2013-06-25 14:32:00,
2013-06-25 10:37:00,84.4,70.9,29.97,West,271,2.0,6.0,64,0.00,,---,0.00,VWS V14.01,2013-06-25 14:37:00,
2013-06-25 10:42:00,84.8,70.8,29.97,SW,229,4.0,8.0,63,0.00,,---,0.00,VWS V14.01,2013-06-25 14:42:00,
2013-06-25 10:47:00,85.1,71.1,29.97,SW,234,5.0,9.0,63,0.00,,---,0.00,VWS V14.01,2013-06-25 14:47:00,
2013-06-25 10:52:00,85.7,70.2,29.97,WNW,291,7.0,12.0,60,0.00,,---,0.00,VWS V14.01,2013-06-25 14:52:00,
2013-06-25 10:57:00,85.1,68.7,29.96,WSW,239,3.0,12.0,58,0.00,,---,0.00,VWS V14.01,2013-06-25 14:57:00,
2013-06-25 11:02:00,84.8,68.4,29.96,WNW,287,6.0,6.0,58,0.00,,---,0.00,VWS V14.01,2013-06-25 15:02:00,
2013-06-25 11:07:00,85.3,68.3,29.96,SSW,204,7.0,10.0,57,0.00,,---,0.00,VWS V14.01,2013-06-25 15:07:00,
2013-06-25 11:12:00,85.4,68.4,29.96,West,274,1.0,10.0,57,0.00,,---,0.00,VWS V14.01,2013-06-25 15:12:00,
2013-06-25 11:17:00,85.7,67.7,29.95,WSW,238,3.0,10.0,55,0.00,,---,0.00,VWS V14.01,2013-06-25 15:17:00,
2013-06-25 11:22:00,85.9,68.4,29.95,SW,231,4.0,11.0,56,0.00,,---,0.00,VWS V14.01,2013-06-25 15:22:00,
2013-06-25 11:27:00,85.8,68.3,29.95,SW,224,0.0,11.0,56,0.00,,---,0.00,VWS V14.01,2013-06-25 15:27:00,
2013-06-25 11:32:00,85.5,68.5,29.95,NW,326,2.0,7.0,57,0.00,,---,0.00,VWS V14.01,2013-06-25 15:32:00,
2013-06-25 11:37:00,85.6,67.6,29.95,ESE,120,2.0,8.0,55,0.00,,---,0.00,VWS V14.01,2013-06-25 15:37:00,
2013-06-25 11:42:00,85.4,68.4,29.94,West,277,1.0,10.0,57,0.00,,---,0.00,VWS V14.01,2013-06-25 15:42:00,
2013-06-25 11:47:00,86.6,68.5,29.94,SW,236,4.0,10.0,55,0.00,,---,0.00,VWS V14.01,2013-06-25 15:47:00,
2013-06-25 11:52:00,86.9,68.3,29.94,WSW,248,8.0,10.0,54,0.00,,---,0.00,VWS V14.01,2013-06-25 15:52:00,
2013-06-25 11:57:00,86.5,68.4,29.94,WNW,298,8.0,10.0,55,0.00,,---,0.00,VWS V14.01,2013-06-25 15:57:00,
2013-06-25 12:02:00,87.3,68.6,29.94,WSW,245,7.0,12.0,54,0.00,,---,0.00,VWS V14.01,2013-06-25 16:02:00,
2013-06-25 12:07:00,86.5,67.3,29.94,WNW,297,8.0,12.0,53,0.00,,---,0.00,VWS V14.01,2013-06-25 16:07:00,
2013-06-25 12:12:00,85.2,67.2,29.93,West,264,1.0,12.0,55,0.00,,---,0.00,VWS V14.01,2013-06-25 16:12:00,
2013-06-25 12:17:00,85.0,67.6,29.93,West,264,3.0,12.0,56,0.00,,---,0.00,VWS V14.01,2013-06-25 16:17:00,
2013-06-25 12:22:00,84.4,67.0,29.94,WNW,298,5.0,12.0,56,0.00,,---,0.00,VWS V14.01,2013-06-25 16:22:00,
2013-06-25 12:27:00,83.1,69.2,29.94,WNW,293,3.0,12.0,63,0.01,,---,0.01,VWS V14.01,2013-06-25 16:27:00,
2013-06-25 12:32:00,79.4,67.9,29.93,West,276,3.0,5.0,68,0.02,,---,0.02,VWS V14.01,2013-06-25 16:32:00,
2013-06-25 12:37:00,78.2,70.0,29.93,West,279,1.0,7.0,76,0.02,,---,0.02,VWS V14.01,2013-06-25 16:37:00,
2013-06-25 12:42:00,79.0,71.2,29.93,NNW,338,1.0,7.0,77,0.02,,---,0.02,VWS V14.01,2013-06-25 16:42:00,
2013-06-25 12:46:00,80.5,71.5,29.93,West,261,0.0,7.0,74,0.02,,---,0.02,VWS V14.01,2013-06-25 16:46:00,
2013-06-25 12:51:00,81.0,70.3,29.93,WNW,293,1.0,7.0,70,0.02,,---,0.02,VWS V14.01,2013-06-25 16:51:00,
2013-06-25 12:56:00,82.1,72.2,29.93,WSW,240,3.0,7.0,72,0.02,,---,0.02,VWS V14.01,2013-06-25 16:56:00,
2013-06-25 13:01:00,83.1,69.7,29.92,SW,236,7.0,7.0,64,0.02,,---,0.02,VWS V14.01,2013-06-25 17:01:00,
2013-06-25 13:06:00,83.9,70.0,29.92,WNW,292,2.0,7.0,63,0.02,,---,0.02,VWS V14.01,2013-06-25 17:06:00,
2013-06-25 13:11:00,84.6,68.7,29.92,WNW,286,5.0,7.0,59,0.02,,---,0.02,VWS V14.01,2013-06-25 17:11:00,
2013-06-25 13:16:00,84.1,67.2,29.92,NW,309,6.0,12.0,57,0.02,,---,0.02,VWS V14.01,2013-06-25 17:16:00,
2013-06-25 13:21:00,84.3,67.4,29.92,WNW,285,4.0,14.0,57,0.02,,---,0.02,VWS V14.01,2013-06-25 17:21:00,
2013-06-25 13:26:00,85.2,67.8,29.92,WNW,292,4.0,14.0,56,0.02,,---,0.02,VWS V14.01,2013-06-25 17:26:00,
2013-06-25 13:31:00,85.7,68.2,29.92,West,266,10.0,10.0,56,0.00,,---,0.02,VWS V14.01,2013-06-25 17:31:00,
2013-06-25 13:36:00,86.3,67.2,29.92,WSW,245,12.0,12.0,53,0.00,,---,0.02,VWS V14.01,2013-06-25 17:36:00,
2013-06-25 13:41:00,85.7,66.1,29.91,WSW,240,6.0,14.0,52,0.00,,---,0.02,VWS V14.01,2013-06-25 17:41:00,
2013-06-25 13:46:00,85.2,66.7,29.92,West,276,5.0,14.0,54,0.00,,---,0.02,VWS V14.01,2013-06-25 17:46:00,
2013-06-25 13:51:00,85.0,66.5,29.91,West,281,7.0,14.0,54,0.00,,---,0.02,VWS V14.01,2013-06-25 17:51:00,
2013-06-25 13:56:00,84.5,66.6,29.91,WNW,283,15.0,15.0,55,0.00,,---,0.02,VWS V14.01,2013-06-25 17:56:00,
2013-06-25 14:01:00,84.2,66.3,29.91,WSW,240,14.0,14.0,55,0.00,,---,0.02,VWS V14.01,2013-06-25 18:01:00,
2013-06-25 14:06:00,84.0,66.6,29.91,WSW,238,12.0,16.0,56,0.00,,---,0.02,VWS V14.01,2013-06-25 18:06:00,
2013-06-25 14:11:00,83.1,65.8,29.91,WSW,252,7.0,16.0,56,0.00,,---,0.02,VWS V14.01,2013-06-25 18:11:00,
2013-06-25 14:16:00,82.4,66.7,29.91,West,269,5.0,16.0,59,0.00,,---,0.02,VWS V14.01,2013-06-25 18:16:00,
2013-06-25 14:21:00,82.2,67.4,29.92,West,271,9.0,16.0,61,0.00,,---,0.02,VWS V14.01,2013-06-25 18:21:00,
2013-06-25 14:26:00,81.8,67.1,29.92,WNW,300,8.0,16.0,61,0.00,,---,0.02,VWS V14.01,2013-06-25 18:26:00,
2013-06-25 14:32:00,81.5,67.2,29.92,SW,231,3.0,9.0,62,0.00,,---,0.02,VWS V14.01,2013-06-25 18:32:00,
2013-06-25 14:37:00,81.2,67.4,29.92,WSW,241,9.0,13.0,63,0.00,,---,0.02,VWS V14.01,2013-06-25 18:37:00,
2013-06-25 14:42:00,80.8,67.5,29.92,West,273,11.0,14.0,64,0.00,,---,0.02,VWS V14.01,2013-06-25 18:42:00,
2013-06-25 14:47:00,80.6,67.8,29.92,West,264,4.0,14.0,65,0.00,,---,0.02,VWS V14.01,2013-06-25 18:47:00,
2013-06-25 14:52:00,80.3,67.9,29.92,West,271,5.0,14.0,66,0.00,,---,0.02,VWS V14.01,2013-06-25 18:52:00,
2013-06-25 14:57:00,79.8,67.9,29.92,West,268,4.0,14.0,67,0.00,,---,0.02,VWS V14.01,2013-06-25 18:57:00,
2013-06-25 15:01:00,79.3,67.8,29.93,West,259,4.0,10.0,68,0.00,,---,0.02,VWS V14.01,2013-06-25 19:01:00,
2013-06-25 15:06:00,79.2,67.7,29.92,SW,234,1.0,10.0,68,0.00,,---,0.02,VWS V14.01,2013-06-25 19:06:00,
2013-06-25 15:12:00,79.2,67.7,29.92,WSW,253,1.0,10.0,68,0.00,,---,0.02,VWS V14.01,2013-06-25 19:12:00,
2013-06-25 15:16:00,79.1,67.6,29.92,WSW,240,3.0,10.0,68,0.00,,---,0.02,VWS V14.01,2013-06-25 19:16:00,
2013-06-25 15:21:00,79.5,68.4,29.92,West,267,3.0,10.0,69,0.00,,---,0.02,VWS V14.01,2013-06-25 19:21:00,
2013-06-25 15:26:00,80.0,68.5,29.92,WSW,240,3.0,10.0,68,0.00,,---,0.02,VWS V14.01,2013-06-25 19:26:00,
2013-06-25 15:31:00,80.7,68.3,29.92,NNW,347,2.0,6.0,66,0.00,,---,0.02,VWS V14.01,2013-06-25 19:31:00,
2013-06-25 15:36:00,80.8,68.4,29.92,West,276,2.0,9.0,66,0.00,,---,0.02,VWS V14.01,2013-06-25 19:36:00,
2013-06-25 15:41:00,81.8,68.4,29.91,WNW,299,4.0,9.0,64,0.00,,---,0.02,VWS V14.01,2013-06-25 19:41:00,
2013-06-25 15:46:00,82.2,68.4,29.91,WNW,298,4.0,8.0,63,0.00,,---,0.02,VWS V14.01,2013-06-25 19:46:00,
2013-06-25 15:51:00,82.0,67.7,29.91,West,262,7.0,9.0,62,0.00,,---,0.02,VWS V14.01,2013-06-25 19:51:00,
2013-06-25 15:56:00,81.8,68.0,29.91,WSW,241,3.0,10.0,63,0.00,,---,0.02,VWS V14.01,2013-06-25 19:56:00,
2013-06-25 16:00:00,81.8,68.0,29.91,WSW,238,5.0,10.0,63,0.00,,---,0.02,VWS V14.01,2013-06-25 20:00:00,
2013-06-25 16:01:00,81.8,68.4,29.90,SW,217,6.0,6.0,64,0.00,,---,0.02,VWS V14.01,2013-06-25 20:01:00,
2013-06-25 16:06:00,81.8,68.4,29.90,SW,234,4.0,12.0,64,0.00,,---,0.02,VWS V14.01,2013-06-25 20:06:00,
2013-06-25 16:11:00,81.8,68.4,29.90,WSW,250,3.0,12.0,64,0.00,,---,0.02,VWS V14.01,2013-06-25 20:11:00,
2013-06-25 16:16:00,81.6,68.2,29.90,West,260,5.0,12.0,64,0.00,,---,0.02,VWS V14.01,2013-06-25 20:16:00,
2013-06-25 16:21:00,81.8,68.9,29.90,WSW,255,0.0,12.0,65,0.00,,---,0.02,VWS V14.01,2013-06-25 20:21:00,
2013-06-25 16:26:00,82.1,68.7,29.90,West,280,4.0,12.0,64,0.00,,---,0.02,VWS V14.01,2013-06-25 20:26:00,
2013-06-25 16:30:00,82.0,69.1,29.89,NE,56,3.0,12.0,65,0.00,,---,0.02,VWS V14.01,2013-06-25 20:30:00,
2013-06-25 16:31:00,82.1,68.7,29.89,WNW,287,1.0,8.0,64,0.00,,---,0.02,VWS V14.01,2013-06-25 20:31:00,
2013-06-25 16:36:00,82.7,69.3,29.89,WSW,238,7.0,8.0,64,0.00,,---,0.02,VWS V14.01,2013-06-25 20:36:00,
2013-06-25 16:41:00,83.2,68.8,29.89,SW,235,1.0,11.0,62,0.00,,---,0.02,VWS V14.01,2013-06-25 20:41:00,
2013-06-25 16:46:00,83.5,69.1,29.89,NW,317,4.0,11.0,62,0.00,,---,0.02,VWS V14.01,2013-06-25 20:46:00,
2013-06-25 16:51:00,84.0,69.6,29.89,SW,226,1.0,11.0,62,0.00,,---,0.02,VWS V14.01,2013-06-25 20:51:00,
2013-06-25 16:56:00,84.7,69.8,29.88,West,269,1.0,11.0,61,0.00,,---,0.02,VWS V14.01,2013-06-25 20:56:00,
2013-06-25 17:00:00,84.7,68.8,29.88,West,259,8.0,11.0,59,0.00,,---,0.02,VWS V14.01,2013-06-25 21:00:00,
2013-06-25 17:01:00,84.5,69.6,29.88,WNW,303,3.0,8.0,61,0.00,,---,0.02,VWS V14.01,2013-06-25 21:01:00,
2013-06-25 17:06:00,84.5,68.6,29.87,WNW,286,5.0,12.0,59,0.00,,---,0.02,VWS V14.01,2013-06-25 21:06:00,
2013-06-25 17:11:00,84.5,69.1,29.87,SSW,205,4.0,12.0,60,0.00,,---,0.02,VWS V14.01,2013-06-25 21:11:00,
2013-06-25 17:16:00,84.9,69.5,29.87,WSW,245,8.0,12.0,60,0.00,,---,0.02,VWS V14.01,2013-06-25 21:16:00,
2013-06-25 17:21:00,85.0,69.1,29.86,SW,236,4.0,14.0,59,0.00,,---,0.02,VWS V14.01,2013-06-25 21:21:00,
2013-06-25 17:26:00,85.2,68.8,29.87,West,274,8.0,14.0,58,0.00,,---,0.02,VWS V14.01,2013-06-25 21:26:00,
2013-06-25 17:30:00,85.2,68.8,29.86,WNW,288,3.0,14.0,58,0.00,,---,0.02,VWS V14.01,2013-06-25 21:30:00,
2013-06-25 17:32:00,85.3,69.4,29.86,WSW,249,6.0,14.0,59,0.00,,---,0.02,VWS V14.01,2013-06-25 21:32:00,
2013-06-25 17:37:00,84.9,68.5,29.86,West,266,6.0,15.0,58,0.00,,---,0.02,VWS V14.01,2013-06-25 21:37:00,
2013-06-25 17:41:00,85.0,69.1,29.86,WSW,258,7.0,15.0,59,0.00,,---,0.02,VWS V14.01,2013-06-25 21:41:00,
2013-06-25 17:46:00,85.2,68.8,29.85,SW,233,4.0,15.0,58,0.00,,---,0.02,VWS V14.01,2013-06-25 21:46:00,
2013-06-25 17:51:00,85.2,68.8,29.85,WSW,240,5.0,15.0,58,0.00,,---,0.02,VWS V14.01,2013-06-25 21:51:00,
2013-06-25 17:56:00,85.4,69.0,29.84,WSW,258,3.0,15.0,58,0.00,,---,0.02,VWS V14.01,2013-06-25 21:56:00,
2013-06-25 18:00:00,85.6,69.1,29.84,South,175,2.0,15.0,58,0.00,,---,0.02,VWS V14.01,2013-06-25 22:00:00,
2013-06-25 18:01:00,85.5,69.1,29.84,West,280,7.0,10.0,58,0.00,,---,0.02,VWS V14.01,2013-06-25 22:01:00,
2013-06-25 18:06:00,85.5,69.1,29.84,WSW,248,2.0,10.0,58,0.00,,---,0.02,VWS V14.01,2013-06-25 22:06:00,
2013-06-25 18:12:00,85.5,68.5,29.84,WSW,258,4.0,10.0,57,0.00,,---,0.02,VWS V14.01,2013-06-25 22:12:00,
2013-06-25 18:16:00,85.2,69.3,29.84,SW,224,5.0,10.0,59,0.00,,---,0.02,VWS V14.01,2013-06-25 22:16:00,
2013-06-25 18:21:00,85.6,69.1,29.84,West,271,1.0,10.0,58,0.00,,---,0.02,VWS V14.01,2013-06-25 22:21:00,
2013-06-25 18:26:00,85.6,69.1,29.84,WSW,246,6.0,10.0,58,0.00,,---,0.02,VWS V14.01,2013-06-25 22:26:00,
2013-06-25 18:30:00,85.3,69.4,29.84,WSW,240,2.0,10.0,59,0.00,,---,0.02,VWS V14.01,2013-06-25 22:30:00,
2013-06-25 18:31:00,85.2,69.3,29.84,SW,223,4.0,7.0,59,0.00,,---,0.02,VWS V14.01,2013-06-25 22:31:00,
2013-06-25 18:36:00,85.0,69.1,29.84,West,275,2.0,10.0,59,0.00,,---,0.02,VWS V14.01,2013-06-25 22:36:00,
2013-06-25 18:41:00,84.6,69.2,29.84,WSW,255,4.0,10.0,60,0.00,,---,0.02,VWS V14.01,2013-06-25 22:41:00,
2013-06-25 18:46:00,84.0,69.1,29.83,NW,314,1.0,10.0,61,0.00,,---,0.02,VWS V14.01,2013-06-25 22:46:00,
2013-06-25 18:51:00,83.6,69.2,29.84,WNW,299,3.0,10.0,62,0.00,,---,0.02,VWS V14.01,2013-06-25 22:51:00,
2013-06-25 18:52:00,83.6,69.2,29.84,NW,310,2.0,10.0,62,0.00,,---,0.02,VWS V14.01,2013-06-25 22:52:00,
2013-06-25 18:57:00,83.5,69.1,29.84,WNW,300,2.0,10.0,62,0.00,,---,0.02,VWS V14.01,2013-06-25 22:57:00,
2013-06-25 19:00:00,83.3,68.9,29.84,WNW,290,1.0,10.0,62,0.00,,---,0.02,VWS V14.01,2013-06-25 23:00:00,
2013-06-25 19:02:00,83.2,69.3,29.84,WNW,297,1.0,4.0,63,0.00,,---,0.02,VWS V14.01,2013-06-25 23:02:00,
2013-06-25 19:07:00,83.0,69.6,29.84,West,278,1.0,4.0,64,0.00,,---,0.02,VWS V14.01,2013-06-25 23:07:00,
2013-06-25 19:12:00,82.7,69.3,29.84,West,272,1.0,5.0,64,0.00,,---,0.02,VWS V14.01,2013-06-25 23:12:00,
2013-06-25 19:17:00,82.5,69.1,29.84,WNW,297,3.0,6.0,64,0.00,,---,0.02,VWS V14.01,2013-06-25 23:17:00,
2013-06-25 19:22:00,82.3,68.9,29.85,WNW,293,1.0,7.0,64,0.00,,---,0.02,VWS V14.01,2013-06-25 23:22:00,
2013-06-25 19:27:00,82.1,69.2,29.85,WNW,285,1.0,7.0,65,0.00,,---,0.02,VWS V14.01,2013-06-25 23:27:00,
2013-06-25 19:30:00,82.1,69.2,29.85,West,271,1.0,7.0,65,0.00,,---,0.02,VWS V14.01,2013-06-25 23:30:00,
2013-06-25 19:32:00,82.0,69.1,29.84,WNW,286,0.0,5.0,65,0.00,,---,0.02,VWS V14.01,2013-06-25 23:32:00,
2013-06-25 19:37:00,82.0,69.1,29.85,WNW,293,5.0,8.0,65,0.00,,---,0.02,VWS V14.01,2013-06-25 23:37:00,
2013-06-25 19:42:00,81.9,69.0,29.84,SW,227,1.0,8.0,65,0.00,,---,0.02,VWS V14.01,2013-06-25 23:42:00,
2013-06-25 19:47:00,81.8,68.9,29.84,West,259,3.0,8.0,65,0.00,,---,0.02,VWS V14.01,2013-06-25 23:47:00,
2013-06-25 19:52:00,81.6,69.2,29.84,SW,234,3.0,8.0,66,0.00,,---,0.02,VWS V14.01,2013-06-25 23:52:00,
2013-06-25 19:56:00,81.6,69.2,29.84,WSW,249,2.0,8.0,66,0.00,,---,0.02,VWS V14.01,2013-06-25 23:56:00,
2013-06-25 20:00:00,81.5,69.1,29.84,SW,221,2.0,8.0,66,0.00,,---,0.02,VWS V14.01,2013-06-26 00:00:00,
2013-06-25 20:01:00,81.4,69.4,29.84,SW,236,1.0,3.0,67,0.00,,---,0.02,VWS V14.01,2013-06-26 00:01:00,
2013-06-25 20:06:00,81.0,69.4,29.83,West,260,2.0,3.0,68,0.00,,---,0.02,VWS V14.01,2013-06-26 00:06:00,
2013-06-25 20:11:00,80.6,69.5,29.84,SW,225,3.0,6.0,69,0.00,,---,0.02,VWS V14.01,2013-06-26 00:11:00,
2013-06-25 20:16:00,80.3,69.6,29.85,SW,236,3.0,6.0,70,0.00,,---,0.02,VWS V14.01,2013-06-26 00:16:00,
2013-06-25 20:21:00,79.9,69.7,29.85,WSW,256,1.0,7.0,71,0.00,,---,0.02,VWS V14.01,2013-06-26 00:21:00,
2013-06-25 20:26:00,79.7,69.9,29.86,WSW,242,2.0,7.0,72,0.00,,---,0.02,VWS V14.01,2013-06-26 00:26:00,
2013-06-25 20:30:00,79.5,70.1,29.86,WSW,245,3.0,7.0,73,0.00,,---,0.02,VWS V14.01,2013-06-26 00:30:00,
2013-06-25 20:31:00,79.4,70.0,29.86,NW,307,1.0,4.0,73,0.00,,---,0.02,VWS V14.01,2013-06-26 00:31:00,
2013-06-25 20:36:00,79.1,70.1,29.87,West,266,7.0,8.0,74,0.00,,---,0.02,VWS V14.01,2013-06-26 00:36:00,
2013-06-25 20:41:00,78.6,68.4,29.87,WNW,293,8.0,22.0,71,0.00,,---,0.02,VWS V14.01,2013-06-26 00:41:00,
2013-06-25 20:46:00,77.7,68.4,29.87,NW,304,4.0,22.0,73,0.00,,---,0.02,VWS V14.01,2013-06-26 00:46:00,
2013-06-25 20:51:00,76.4,67.1,29.87,WNW,292,4.0,22.0,73,0.00,,---,0.02,VWS V14.01,2013-06-26 00:51:00,
2013-06-25 20:56:00,75.4,65.8,29.87,WSW,249,5.0,22.0,72,0.00,,---,0.02,VWS V14.01,2013-06-26 00:56:00,
2013-06-25 21:00:00,74.9,65.7,29.88,WNW,302,12.0,22.0,73,0.00,,---,0.02,VWS V14.01,2013-06-26 01:00:00,
2013-06-25 21:01:00,74.5,65.3,29.87,WNW,287,7.0,12.0,73,0.00,,---,0.02,VWS V14.01,2013-06-26 01:01:00,
2013-06-25 21:06:00,73.8,65.0,29.87,WNW,293,7.0,14.0,74,0.00,,---,0.02,VWS V14.01,2013-06-26 01:06:00,
2013-06-25 21:11:00,73.3,65.3,29.88,NW,313,4.0,14.0,76,0.00,,---,0.02,VWS V14.01,2013-06-26 01:11:00,
2013-06-25 21:16:00,72.9,65.3,29.88,SW,224,2.0,14.0,77,0.00,,---,0.02,VWS V14.01,2013-06-26 01:16:00,
2013-06-25 21:21:00,72.7,65.1,29.88,SSW,207,1.0,14.0,77,0.00,,---,0.02,VWS V14.01,2013-06-26 01:21:00,
2013-06-25 21:26:00,72.7,65.1,29.90,WSW,240,4.0,14.0,77,0.00,,---,0.02,VWS V14.01,2013-06-26 01:26:00,
2013-06-25 21:30:00,72.6,65.3,29.90,SW,232,1.0,14.0,78,0.00,,---,0.02,VWS V14.01,2013-06-26 01:30:00,
2013-06-25 22:01:00,69.9,65.5,29.90,WSW,248,0.0,0.0,86,0.00,,---,0.06,VWS V14.01,2013-06-26 02:01:00,
2013-06-25 22:06:00,70.1,64.0,29.89,WNW,291,4.0,8.0,81,0.04,,---,0.06,VWS V14.01,2013-06-26 02:06:00,
2013-06-25 22:11:00,70.2,64.1,29.89,WNW,297,3.0,11.0,81,0.04,,---,0.06,VWS V14.01,2013-06-26 02:11:00,
2013-06-25 22:16:00,70.1,64.4,29.89,West,278,3.0,11.0,82,0.04,,---,0.06,VWS V14.01,2013-06-26 02:16:00,
2013-06-25 22:21:00,70.0,63.9,29.88,NW,307,6.0,11.0,81,0.05,,---,0.07,VWS V14.01,2013-06-26 02:21:00,
2013-06-25 22:26:00,70.3,63.8,29.88,NW,315,4.0,11.0,80,0.05,,---,0.07,VWS V14.01,2013-06-26 02:26:00,
2013-06-25 22:31:00,70.2,64.1,29.88,West,278,0.0,6.0,81,0.05,,---,0.07,VWS V14.01,2013-06-26 02:31:00,
2013-06-25 22:36:00,70.2,64.4,29.87,North,352,2.0,6.0,82,0.05,,---,0.07,VWS V14.01,2013-06-26 02:36:00,
2013-06-25 22:41:00,69.5,64.8,29.87,NNW,333,0.0,6.0,85,0.05,,---,0.07,VWS V14.01,2013-06-26 02:41:00,
2013-06-25 22:46:00,69.4,64.7,29.87,WNW,293,0.0,6.0,85,0.05,,---,0.07,VWS V14.01,2013-06-26 02:46:00,
2013-06-25 22:51:00,69.2,64.2,29.87,NW,316,2.0,6.0,84,0.05,,---,0.07,VWS V14.01,2013-06-26 02:51:00,
2013-06-25 22:56:00,69.1,64.7,29.88,WNW,287,0.0,6.0,86,0.05,,---,0.07,VWS V14.01,2013-06-26 02:56:00,
2013-06-25 23:01:00,69.0,65.0,29.88,WNW,303,2.0,2.0,87,0.00,,---,0.07,VWS V14.01,2013-06-26 03:01:00,
2013-06-25 23:06:00,69.1,64.7,29.88,WNW,300,2.0,5.0,86,0.00,,---,0.07,VWS V14.01,2013-06-26 03:06:00,
2013-06-25 23:11:00,69.6,64.9,29.88,West,276,2.0,7.0,85,0.00,,---,0.07,VWS V14.01,2013-06-26 03:11:00,
2013-06-25 23:16:00,69.6,64.6,29.89,WNW,303,7.0,11.0,84,0.00,,---,0.07,VWS V14.01,2013-06-26 03:16:00,
2013-06-25 23:21:00,69.7,64.3,29.89,WNW,288,4.0,12.0,83,0.00,,---,0.07,VWS V14.01,2013-06-26 03:21:00,
2013-06-25 23:26:00,69.8,64.4,29.89,NW,306,3.0,12.0,83,0.00,,---,0.07,VWS V14.01,2013-06-26 03:26:00,
2013-06-25 23:31:00,69.7,64.3,29.88,WSW,252,0.0,5.0,83,0.00,,---,0.07,VWS V14.01,2013-06-26 03:31:00,
2013-06-25 23:36:00,69.6,64.2,29.88,NW,313,2.0,6.0,83,0.00,,---,0.07,VWS V14.01,2013-06-26 03:36:00,
2013-06-25 23:41:00,69.2,64.5,29.88,East,96,0.0,6.0,85,0.00,,---,0.07,VWS V14.01,2013-06-26 03:41:00,
2013-06-25 23:46:00,68.8,64.8,29.88,SE,145,0.0,6.0,87,0.00,,---,0.07,VWS V14.01,2013-06-26 03:46:00,
2013-06-25 23:51:00,68.4,64.7,29.88,North,349,0.0,6.0,88,0.00,,---,0.07,VWS V14.01,2013-06-26 03:51:00,
2013-06-25 23:56:00,68.4,64.7,29.88,West,278,0.0,6.0,88,0.00,,---,0.07,VWS V14.01,2013-06-26 03:56:00,